BCCSAT-1

Last updated on Thu Sep 19 2024 00:03:35 GMT+0000 (Coordinated Universal Time)

1 48041U 21022AK 24262.28585673 .05057636 24843-5 23218-2 0 9990 2 48041 97.4296 174.7648 0007944 163.5536 196.6013 16.21846709192491
UTC large
Height (km)
Speed (km/s)
/
Latitude / Longitude
Inclination (degrees)
Orbital Period (minutes)
Azimuth
Elevation
Range (km)
Doppler Factor

Next 0 passes for location: London (51.5072 / 0.1276)

Sorry there are no passes over London.